Year,Month,Day,Hour,Minute,Value (Times are PST for windgust in km/hr)
2016,05,06,00,00,4.80
2016,05,06,00,01,4.80
2016,05,06,00,02,3.20
2016,05,06,00,03,4.80
2016,05,06,00,04,4.80
2016,05,06,00,05,6.40
2016,05,06,00,06,4.80
2016,05,06,00,07,6.40
2016,05,06,00,08,4.80
2016,05,06,00,09,3.20
2016,05,06,00,10,4.80
2016,05,06,00,11,3.20
2016,05,06,00,12,3.20
2016,05,06,00,13,3.20
2016,05,06,00,14,4.80
2016,05,06,00,15,4.80
2016,05,06,00,16,4.80
2016,05,06,00,17,4.80
2016,05,06,00,18,4.80
2016,05,06,00,19,4.80
2016,05,06,00,20,4.80
2016,05,06,00,21,8.10
2016,05,06,00,22,9.60
2016,05,06,00,23,9.60
2016,05,06,00,24,9.60
2016,05,06,00,25,9.60
2016,05,06,00,26,9.60
2016,05,06,00,27,8.10
2016,05,06,00,28,8.10
2016,05,06,00,29,8.10
2016,05,06,00,30,8.10
2016,05,06,00,31,4.80
2016,05,06,00,32,6.40
2016,05,06,00,33,8.10
2016,05,06,00,34,8.10
2016,05,06,00,35,9.60
2016,05,06,00,36,9.60
2016,05,06,00,37,8.10
2016,05,06,00,38,8.10
2016,05,06,00,39,9.60
2016,05,06,00,40,9.60
2016,05,06,00,41,9.60
2016,05,06,00,42,8.10
2016,05,06,00,43,8.10
2016,05,06,00,44,9.60
2016,05,06,00,45,9.60
2016,05,06,00,46,8.10
2016,05,06,00,47,8.10
2016,05,06,00,48,9.60
2016,05,06,00,49,8.10
2016,05,06,00,50,6.40
2016,05,06,00,51,8.10
2016,05,06,00,52,8.10
2016,05,06,00,53,6.40
2016,05,06,00,54,8.10
2016,05,06,00,55,9.60
2016,05,06,00,56,9.60
2016,05,06,00,57,8.10
2016,05,06,00,58,8.10
2016,05,06,00,59,9.60
2016,05,06,01,00,8.10
2016,05,06,01,01,6.40
2016,05,06,01,02,8.10
2016,05,06,01,03,8.10
2016,05,06,01,04,6.40
2016,05,06,01,05,4.80
2016,05,06,01,06,6.40
2016,05,06,01,07,6.40
2016,05,06,01,08,9.60
2016,05,06,01,09,8.10
2016,05,06,01,10,8.10
2016,05,06,01,11,6.40
2016,05,06,01,12,8.10
2016,05,06,01,13,8.10
2016,05,06,01,14,8.10
2016,05,06,01,15,9.60
2016,05,06,01,16,9.60
2016,05,06,01,17,11.30
2016,05,06,01,18,12.90
2016,05,06,01,19,11.30
2016,05,06,01,20,8.10
2016,05,06,01,21,11.30
2016,05,06,01,22,8.10
2016,05,06,01,23,8.10
2016,05,06,01,24,4.80
2016,05,06,01,25,6.40
2016,05,06,01,26,4.80
2016,05,06,01,27,6.40
2016,05,06,01,28,3.20
2016,05,06,01,29,1.60
2016,05,06,01,30,3.20
2016,05,06,01,31,6.40
2016,05,06,01,32,4.80
2016,05,06,01,33,3.20
2016,05,06,01,34,1.60
2016,05,06,01,36,3.20
2016,05,06,01,37,4.80
2016,05,06,01,38,4.80
2016,05,06,01,39,4.80
2016,05,06,01,40,1.60
2016,05,06,02,08,1.60
2016,05,06,02,09,1.60
2016,05,06,02,10,1.60
2016,05,06,02,21,1.60
2016,05,06,02,22,3.20
2016,05,06,02,23,1.60
2016,05,06,02,30,3.20
2016,05,06,02,31,4.80
2016,05,06,02,32,4.80
2016,05,06,02,33,3.20
2016,05,06,02,34,1.60
2016,05,06,02,41,3.20
2016,05,06,02,42,4.80
2016,05,06,02,43,4.80
2016,05,06,02,44,3.20
2016,05,06,02,47,3.20
2016,05,06,02,48,4.80
2016,05,06,02,49,4.80
2016,05,06,02,50,4.80
2016,05,06,02,51,4.80
2016,05,06,02,52,1.60
2016,05,06,02,53,1.60
2016,05,06,02,57,1.60
2016,05,06,02,58,1.60
2016,05,06,02,59,3.20
2016,05,06,03,00,3.20
2016,05,06,03,01,3.20
2016,05,06,03,02,4.80
2016,05,06,03,03,3.20
2016,05,06,03,04,1.60
2016,05,06,03,10,1.60
2016,05,06,03,11,3.20
2016,05,06,03,12,4.80
2016,05,06,03,13,6.40
2016,05,06,03,14,6.40
2016,05,06,03,15,6.40
2016,05,06,03,16,4.80
2016,05,06,03,17,1.60
2016,05,06,03,18,4.80
2016,05,06,03,19,6.40
2016,05,06,03,20,4.80
2016,05,06,03,21,4.80
2016,05,06,03,22,3.20
2016,05,06,03,23,1.60
2016,05,06,03,24,3.20
2016,05,06,03,25,1.60
2016,05,06,03,26,3.20
2016,05,06,03,27,3.20
2016,05,06,03,28,3.20
2016,05,06,03,29,3.20
2016,05,06,03,30,3.20
2016,05,06,03,31,3.20
2016,05,06,03,32,4.80
2016,05,06,03,33,4.80
2016,05,06,03,34,4.80
2016,05,06,03,35,3.20
2016,05,06,03,36,1.60
2016,05,06,03,40,3.20
2016,05,06,03,41,3.20
2016,05,06,03,42,3.20
2016,05,06,03,43,3.20
2016,05,06,03,45,3.20
2016,05,06,03,46,1.60
2016,05,06,03,47,1.60
2016,05,06,03,50,1.60
2016,05,06,03,51,1.60
2016,05,06,03,52,1.60
2016,05,06,03,53,3.20
2016,05,06,03,54,3.20
2016,05,06,03,55,3.20
2016,05,06,03,56,3.20
2016,05,06,03,57,6.40
2016,05,06,03,58,4.80
2016,05,06,03,59,3.20
2016,05,06,04,00,1.60
2016,05,06,04,01,3.20
2016,05,06,04,02,3.20
2016,05,06,04,03,3.20
2016,05,06,04,04,4.80
2016,05,06,04,05,4.80
2016,05,06,04,06,4.80
2016,05,06,04,07,4.80
2016,05,06,04,08,4.80
2016,05,06,04,09,3.20
2016,05,06,04,10,1.60
2016,05,06,04,11,1.60
2016,05,06,04,12,1.60
2016,05,06,04,13,1.60
2016,05,06,04,14,3.20
2016,05,06,04,15,4.80
2016,05,06,04,16,3.20
2016,05,06,04,17,4.80
2016,05,06,04,18,4.80
2016,05,06,04,19,6.40
2016,05,06,04,20,4.80
2016,05,06,04,21,3.20
2016,05,06,04,22,3.20
2016,05,06,04,25,3.20
2016,05,06,04,26,3.20
2016,05,06,04,27,3.20
2016,05,06,04,28,3.20
2016,05,06,04,29,4.80
2016,05,06,04,30,4.80
2016,05,06,04,31,4.80
2016,05,06,04,32,4.80
2016,05,06,04,33,4.80
2016,05,06,04,34,3.20
2016,05,06,04,35,1.60
2016,05,06,04,37,3.20
2016,05,06,04,38,4.80
2016,05,06,04,39,4.80
2016,05,06,04,40,6.40
2016,05,06,04,41,6.40
2016,05,06,04,42,6.40
2016,05,06,04,43,4.80
2016,05,06,04,44,4.80
2016,05,06,04,45,4.80
2016,05,06,04,46,3.20
2016,05,06,04,47,3.20
2016,05,06,04,48,3.20
2016,05,06,04,49,3.20
2016,05,06,04,50,4.80
2016,05,06,04,51,1.60
2016,05,06,04,52,1.60
2016,05,06,04,53,3.20
2016,05,06,04,54,3.20
2016,05,06,04,56,1.60
2016,05,06,04,57,1.60
2016,05,06,05,01,1.60
2016,05,06,05,02,3.20
2016,05,06,05,03,1.60
2016,05,06,05,05,1.60
2016,05,06,05,06,3.20
2016,05,06,05,07,1.60
2016,05,06,05,13,1.60
2016,05,06,05,14,3.20
2016,05,06,05,15,3.20
2016,05,06,05,16,3.20
2016,05,06,05,17,1.60
2016,05,06,05,19,1.60
2016,05,06,05,20,1.60
2016,05,06,05,24,1.60
2016,05,06,05,30,1.60
2016,05,06,05,31,1.60
2016,05,06,05,33,3.20
2016,05,06,05,34,3.20
2016,05,06,05,35,1.60
2016,05,06,05,36,3.20
2016,05,06,05,37,1.60
2016,05,06,05,38,3.20
2016,05,06,05,39,4.80
2016,05,06,05,40,6.40
2016,05,06,05,41,3.20
2016,05,06,05,43,1.60
2016,05,06,05,44,1.60
2016,05,06,05,45,3.20
2016,05,06,05,46,3.20
2016,05,06,05,47,3.20
2016,05,06,05,48,1.60
2016,05,06,05,49,3.20
2016,05,06,05,50,3.20
2016,05,06,05,52,3.20
2016,05,06,05,53,3.20
2016,05,06,05,54,3.20
2016,05,06,05,55,3.20
2016,05,06,05,56,3.20
2016,05,06,05,57,3.20
2016,05,06,05,58,1.60
2016,05,06,05,59,1.60
2016,05,06,06,00,1.60
2016,05,06,06,01,3.20
2016,05,06,06,02,3.20
2016,05,06,06,03,3.20
2016,05,06,06,04,3.20
2016,05,06,06,05,3.20
2016,05,06,06,06,1.60
2016,05,06,06,07,3.20
2016,05,06,06,08,1.60
2016,05,06,06,09,1.60
2016,05,06,06,10,1.60
2016,05,06,06,18,1.60
2016,05,06,06,19,3.20
2016,05,06,06,20,1.60
2016,05,06,06,21,1.60
2016,05,06,06,22,3.20
2016,05,06,06,23,3.20
2016,05,06,06,24,3.20
2016,05,06,06,25,3.20
2016,05,06,06,26,1.60
2016,05,06,06,27,1.60
2016,05,06,06,33,1.60
2016,05,06,06,39,1.60
2016,05,06,06,43,1.60
2016,05,06,06,44,3.20
2016,05,06,06,45,3.20
2016,05,06,06,46,3.20
2016,05,06,06,47,1.60
2016,05,06,06,48,1.60
2016,05,06,06,49,3.20
2016,05,06,06,50,1.60
2016,05,06,06,52,1.60
2016,05,06,06,53,3.20
2016,05,06,06,54,4.80
2016,05,06,06,55,4.80
2016,05,06,06,56,3.20
2016,05,06,06,57,1.60
2016,05,06,06,58,3.20
2016,05,06,06,59,3.20
2016,05,06,07,00,3.20
2016,05,06,07,01,1.60
2016,05,06,07,02,3.20
2016,05,06,07,03,3.20
2016,05,06,07,04,3.20
2016,05,06,07,05,3.20
2016,05,06,07,06,4.80
2016,05,06,07,07,4.80
2016,05,06,07,08,3.20
2016,05,06,07,09,3.20
2016,05,06,07,10,3.20
2016,05,06,07,11,1.60
2016,05,06,07,16,1.60
2016,05,06,07,18,3.20
2016,05,06,07,19,3.20
2016,05,06,07,20,4.80
2016,05,06,07,21,3.20
2016,05,06,07,23,3.20
2016,05,06,07,24,1.60
2016,05,06,07,26,3.20
2016,05,06,07,27,3.20
2016,05,06,07,28,3.20
2016,05,06,07,29,3.20
2016,05,06,07,30,4.80
2016,05,06,07,31,3.20
2016,05,06,07,32,3.20
2016,05,06,07,35,1.60
2016,05,06,07,36,3.20
2016,05,06,07,37,3.20
2016,05,06,07,38,3.20
2016,05,06,07,39,3.20
2016,05,06,07,40,3.20
2016,05,06,07,43,1.60
2016,05,06,07,44,3.20
2016,05,06,07,45,4.80
2016,05,06,07,46,3.20
2016,05,06,07,47,3.20
2016,05,06,07,48,3.20
2016,05,06,07,49,4.80
2016,05,06,07,50,6.40
2016,05,06,07,51,6.40
2016,05,06,07,52,4.80
2016,05,06,07,53,4.80
2016,05,06,07,54,3.20
2016,05,06,07,55,1.60
2016,05,06,07,56,3.20
2016,05,06,07,57,3.20
2016,05,06,07,58,3.20
2016,05,06,07,59,3.20
2016,05,06,08,00,3.20
2016,05,06,08,01,3.20
2016,05,06,08,02,4.80
2016,05,06,08,03,4.80
2016,05,06,08,04,3.20
2016,05,06,08,05,4.80
2016,05,06,08,06,3.20
2016,05,06,08,07,3.20
2016,05,06,08,08,3.20
2016,05,06,08,09,3.20
2016,05,06,08,10,3.20
2016,05,06,08,11,3.20
2016,05,06,08,12,4.80
2016,05,06,08,13,3.20
2016,05,06,08,14,1.60
2016,05,06,08,15,3.20
2016,05,06,08,16,1.60
2016,05,06,08,17,1.60
2016,05,06,08,18,4.80
2016,05,06,08,19,4.80
2016,05,06,08,20,6.40
2016,05,06,08,21,3.20
2016,05,06,08,22,4.80
2016,05,06,08,23,3.20
2016,05,06,08,24,4.80
2016,05,06,08,25,4.80
2016,05,06,08,26,4.80
2016,05,06,08,27,3.20
2016,05,06,08,28,3.20
2016,05,06,08,29,3.20
2016,05,06,08,30,4.80
2016,05,06,08,31,4.80
2016,05,06,08,32,1.60
2016,05,06,08,33,1.60
2016,05,06,08,34,3.20
2016,05,06,08,35,3.20
2016,05,06,08,36,3.20
2016,05,06,08,37,3.20
2016,05,06,08,38,3.20
2016,05,06,08,39,1.60
2016,05,06,08,43,1.60
2016,05,06,08,49,1.60
2016,05,06,08,52,1.60
2016,05,06,08,55,1.60
2016,05,06,09,00,3.20
2016,05,06,09,01,8.10
2016,05,06,09,02,8.10
2016,05,06,09,03,8.10
2016,05,06,09,04,6.40
2016,05,06,09,05,6.40
2016,05,06,09,06,6.40
2016,05,06,09,07,4.80
2016,05,06,09,08,3.20
2016,05,06,09,09,3.20
2016,05,06,09,10,4.80
2016,05,06,09,11,6.40
2016,05,06,09,12,4.80
2016,05,06,09,13,4.80
2016,05,06,09,14,8.10
2016,05,06,09,15,8.10
2016,05,06,09,16,8.10
2016,05,06,09,17,9.60
2016,05,06,09,18,9.60
2016,05,06,09,19,8.10
2016,05,06,09,20,8.10
2016,05,06,09,21,6.40
2016,05,06,09,22,6.40
2016,05,06,09,23,4.80
2016,05,06,09,24,4.80
2016,05,06,09,25,4.80
2016,05,06,09,26,4.80
2016,05,06,09,27,4.80
2016,05,06,09,28,4.80
2016,05,06,09,29,4.80
2016,05,06,09,30,4.80
2016,05,06,09,31,4.80
2016,05,06,09,32,4.80
2016,05,06,09,33,4.80
2016,05,06,09,34,4.80
2016,05,06,09,35,3.20
2016,05,06,09,36,3.20
2016,05,06,09,37,6.40
2016,05,06,09,38,8.10
2016,05,06,09,39,6.40
2016,05,06,09,40,4.80
2016,05,06,09,41,4.80
2016,05,06,09,42,8.10
2016,05,06,09,43,8.10
2016,05,06,09,44,12.90
2016,05,06,09,45,11.30
2016,05,06,09,46,11.30
2016,05,06,09,47,11.30
2016,05,06,09,48,9.60
2016,05,06,09,49,8.10
2016,05,06,09,50,6.40
2016,05,06,09,51,6.40
2016,05,06,09,52,6.40
2016,05,06,09,53,6.40
2016,05,06,09,54,8.10
2016,05,06,09,55,4.80
2016,05,06,09,56,6.40
2016,05,06,09,57,6.40
2016,05,06,09,58,6.40
2016,05,06,09,59,4.80
2016,05,06,10,00,4.80
2016,05,06,10,01,4.80
2016,05,06,10,02,6.40
2016,05,06,10,03,11.30
2016,05,06,10,04,11.30
2016,05,06,10,05,8.10
2016,05,06,10,06,6.40
2016,05,06,10,07,8.10
2016,05,06,10,08,8.10
2016,05,06,10,09,8.10
2016,05,06,10,10,6.40
2016,05,06,10,11,6.40
2016,05,06,10,12,4.80
2016,05,06,10,13,4.80
2016,05,06,10,14,6.40
2016,05,06,10,15,8.10
2016,05,06,10,16,8.10
2016,05,06,10,17,9.60
2016,05,06,10,18,11.30
2016,05,06,10,19,8.10
2016,05,06,10,20,6.40
2016,05,06,10,21,3.20
2016,05,06,10,22,6.40
2016,05,06,10,23,14.50
2016,05,06,10,24,12.90
2016,05,06,10,25,9.60
2016,05,06,10,26,8.10
2016,05,06,10,27,4.80
2016,05,06,10,28,4.80
2016,05,06,10,29,6.40
2016,05,06,10,30,4.80
2016,05,06,10,31,3.20
2016,05,06,10,32,4.80
2016,05,06,10,33,4.80
2016,05,06,10,34,8.10
2016,05,06,10,35,8.10
2016,05,06,10,36,6.40
2016,05,06,10,37,6.40
2016,05,06,10,38,4.80
2016,05,06,10,39,6.40
2016,05,06,10,40,9.60
2016,05,06,10,41,8.10
2016,05,06,10,42,11.30
2016,05,06,10,43,11.30
2016,05,06,10,44,9.60
2016,05,06,10,45,11.30
2016,05,06,10,46,11.30
2016,05,06,10,47,11.30
2016,05,06,10,48,11.30
2016,05,06,10,49,9.60
2016,05,06,10,50,8.10
2016,05,06,10,51,9.60
2016,05,06,10,52,9.60
2016,05,06,10,53,8.10
2016,05,06,10,54,8.10
2016,05,06,10,55,11.30
2016,05,06,10,56,9.60
2016,05,06,10,57,8.10
2016,05,06,10,58,6.40
2016,05,06,10,59,8.10
2016,05,06,11,00,6.40
2016,05,06,11,01,6.40
2016,05,06,11,02,9.60
2016,05,06,11,03,9.60
2016,05,06,11,04,9.60
2016,05,06,11,05,9.60
2016,05,06,11,06,9.60
2016,05,06,11,07,6.40
2016,05,06,11,08,9.60
2016,05,06,11,09,8.10
2016,05,06,11,10,8.10
2016,05,06,11,11,8.10
2016,05,06,11,12,8.10
2016,05,06,11,13,6.40
2016,05,06,11,14,8.10
2016,05,06,11,15,8.10
2016,05,06,11,16,6.40
2016,05,06,11,17,9.60
2016,05,06,11,18,11.30
2016,05,06,11,19,9.60
2016,05,06,11,20,11.30
2016,05,06,11,21,9.60
2016,05,06,11,22,8.10
2016,05,06,11,23,11.30
2016,05,06,11,24,9.60
2016,05,06,11,25,8.10
2016,05,06,11,26,8.10
2016,05,06,11,27,9.60
2016,05,06,11,28,9.60
2016,05,06,11,29,8.10
2016,05,06,11,30,11.30
2016,05,06,11,31,12.90
2016,05,06,11,32,9.60
2016,05,06,11,33,6.40
2016,05,06,11,34,9.60
2016,05,06,11,35,8.10
2016,05,06,11,36,11.30
2016,05,06,11,37,11.30
2016,05,06,11,38,9.60
2016,05,06,11,39,9.60
2016,05,06,11,40,8.10
2016,05,06,11,41,11.30
2016,05,06,11,42,11.30
2016,05,06,11,43,11.30
2016,05,06,11,44,8.10
2016,05,06,11,45,8.10
2016,05,06,11,46,11.30
2016,05,06,11,47,9.60
2016,05,06,11,48,11.30
2016,05,06,11,49,9.60
2016,05,06,11,50,6.40
2016,05,06,11,51,6.40
2016,05,06,11,52,6.40
2016,05,06,11,53,9.60
2016,05,06,11,54,9.60
2016,05,06,11,55,11.30
2016,05,06,11,56,8.10
2016,05,06,11,57,8.10
2016,05,06,11,58,11.30
2016,05,06,11,59,12.90
2016,05,06,12,00,8.10
2016,05,06,12,01,9.60
2016,05,06,12,02,12.90
2016,05,06,12,03,11.30
2016,05,06,12,04,11.30
2016,05,06,12,05,11.30
2016,05,06,12,06,16.10
2016,05,06,12,07,14.50
2016,05,06,12,08,11.30
2016,05,06,12,09,11.30
2016,05,06,12,10,14.50
2016,05,06,12,11,22.50
2016,05,06,12,12,24.20
2016,05,06,12,13,16.10
2016,05,06,12,14,8.10
2016,05,06,12,15,16.10
2016,05,06,12,16,19.30
2016,05,06,12,17,20.90
2016,05,06,12,18,16.10
2016,05,06,12,19,17.70
2016,05,06,12,20,16.10
2016,05,06,12,21,14.50
2016,05,06,12,22,14.50
2016,05,06,12,23,19.30
2016,05,06,12,24,22.50
2016,05,06,12,25,16.10
2016,05,06,12,26,14.50
2016,05,06,12,27,14.50
2016,05,06,12,28,11.30
2016,05,06,12,29,11.30
2016,05,06,12,30,11.30
2016,05,06,12,31,12.90
2016,05,06,12,32,14.50
2016,05,06,12,33,14.50
2016,05,06,12,34,12.90
2016,05,06,12,35,11.30
2016,05,06,12,36,12.90
2016,05,06,12,37,14.50
2016,05,06,12,38,12.90
2016,05,06,12,39,12.90
2016,05,06,12,40,12.90
2016,05,06,12,41,9.60
2016,05,06,12,42,9.60
2016,05,06,12,43,8.10
2016,05,06,12,44,8.10
2016,05,06,12,45,6.40
2016,05,06,12,46,6.40
2016,05,06,12,47,14.50
2016,05,06,12,48,8.10
2016,05,06,12,49,8.10
2016,05,06,12,50,11.30
2016,05,06,12,51,11.30
2016,05,06,12,52,11.30
2016,05,06,12,53,8.10
2016,05,06,12,54,8.10
2016,05,06,12,55,12.90
2016,05,06,12,56,8.10
2016,05,06,12,57,8.10
2016,05,06,12,58,8.10
2016,05,06,12,59,9.60
2016,05,06,13,00,9.60
2016,05,06,13,01,8.10
2016,05,06,13,02,11.30
2016,05,06,13,03,8.10
2016,05,06,13,04,9.60
2016,05,06,13,05,9.60
2016,05,06,13,06,8.10
2016,05,06,13,07,8.10
2016,05,06,13,08,9.60
2016,05,06,13,09,11.30
2016,05,06,13,10,6.40
2016,05,06,13,11,14.50
2016,05,06,13,12,14.50
2016,05,06,13,13,14.50
2016,05,06,13,14,12.90
2016,05,06,13,15,12.90
2016,05,06,13,16,9.60
2016,05,06,13,17,14.50
2016,05,06,13,18,16.10
2016,05,06,13,19,12.90
2016,05,06,13,20,19.30
2016,05,06,13,21,16.10
2016,05,06,13,22,14.50
2016,05,06,13,23,9.60
2016,05,06,13,24,11.30
2016,05,06,13,25,8.10
2016,05,06,13,26,8.10
2016,05,06,13,27,8.10
2016,05,06,13,28,9.60
2016,05,06,13,29,11.30
2016,05,06,13,30,9.60
2016,05,06,13,31,8.10
2016,05,06,13,32,9.60
2016,05,06,13,33,11.30
2016,05,06,13,34,12.90
2016,05,06,13,35,12.90
2016,05,06,13,36,11.30
2016,05,06,13,37,14.50
2016,05,06,13,38,12.90
2016,05,06,13,39,12.90
2016,05,06,13,40,9.60
2016,05,06,13,41,14.50
2016,05,06,13,42,11.30
2016,05,06,13,43,12.90
2016,05,06,13,44,14.50
2016,05,06,13,45,9.60
2016,05,06,13,46,6.40
2016,05,06,13,47,12.90
2016,05,06,13,48,16.10
2016,05,06,13,49,17.70
2016,05,06,13,50,17.70
2016,05,06,13,51,16.10
2016,05,06,13,52,16.10
2016,05,06,13,53,14.50
2016,05,06,13,54,16.10
2016,05,06,13,55,16.10
2016,05,06,13,56,16.10
2016,05,06,13,57,16.10
2016,05,06,13,58,17.70
2016,05,06,13,59,14.50
2016,05,06,14,00,14.50
2016,05,06,14,01,11.30
2016,05,06,14,02,20.90
2016,05,06,14,03,19.30
2016,05,06,14,04,14.50
2016,05,06,14,05,20.90
2016,05,06,14,06,19.30
2016,05,06,14,07,12.90
2016,05,06,14,08,17.70
2016,05,06,14,09,14.50
2016,05,06,14,10,16.10
2016,05,06,14,11,19.30
2016,05,06,14,12,16.10
2016,05,06,14,13,14.50
2016,05,06,14,14,12.90
2016,05,06,14,15,16.10
2016,05,06,14,16,14.50
2016,05,06,14,17,9.60
2016,05,06,14,18,8.10
2016,05,06,14,19,9.60
2016,05,06,14,20,8.10
2016,05,06,14,21,11.30
2016,05,06,14,22,11.30
2016,05,06,14,23,9.60
2016,05,06,14,24,11.30
2016,05,06,14,25,11.30
2016,05,06,14,26,12.90
2016,05,06,14,27,12.90
2016,05,06,14,28,11.30
2016,05,06,14,29,12.90
2016,05,06,14,30,11.30
2016,05,06,14,31,11.30
2016,05,06,14,32,9.60
2016,05,06,14,33,9.60
2016,05,06,14,34,9.60
2016,05,06,14,35,11.30
2016,05,06,14,36,8.10
2016,05,06,14,37,11.30
2016,05,06,14,38,11.30
2016,05,06,14,39,12.90
2016,05,06,14,40,11.30
2016,05,06,14,41,9.60
2016,05,06,14,42,8.10
2016,05,06,14,43,9.60
2016,05,06,14,44,8.10
2016,05,06,14,45,8.10
2016,05,06,14,46,6.40
2016,05,06,14,47,11.30
2016,05,06,14,48,9.60
2016,05,06,14,49,6.40
2016,05,06,14,50,12.90
2016,05,06,14,51,8.10
2016,05,06,14,52,9.60
2016,05,06,14,53,9.60
2016,05,06,14,54,9.60
2016,05,06,14,55,11.30
2016,05,06,14,56,9.60
2016,05,06,14,57,16.10
2016,05,06,14,58,11.30
2016,05,06,14,59,12.90
2016,05,06,15,00,12.90
2016,05,06,15,01,16.10
2016,05,06,15,02,12.90
2016,05,06,15,03,12.90
2016,05,06,15,04,11.30
2016,05,06,15,05,8.10
2016,05,06,15,06,16.10
2016,05,06,15,07,11.30
2016,05,06,15,08,11.30
2016,05,06,15,09,8.10
2016,05,06,15,10,9.60
2016,05,06,15,11,8.10
2016,05,06,15,12,9.60
2016,05,06,15,13,9.60
2016,05,06,15,14,8.10
2016,05,06,15,15,11.30
2016,05,06,15,16,9.60
2016,05,06,15,17,6.40
2016,05,06,15,18,6.40
2016,05,06,15,19,8.10
2016,05,06,15,20,9.60
2016,05,06,15,21,9.60
2016,05,06,15,22,9.60
2016,05,06,15,23,9.60
2016,05,06,15,24,4.80
2016,05,06,15,25,6.40
2016,05,06,15,26,9.60
2016,05,06,15,27,6.40
2016,05,06,15,28,8.10
2016,05,06,15,29,6.40
2016,05,06,15,30,11.30
2016,05,06,15,31,9.60
2016,05,06,15,32,9.60
2016,05,06,15,33,16.10
2016,05,06,15,34,16.10
2016,05,06,15,35,16.10
2016,05,06,15,36,19.30
2016,05,06,15,37,14.50
2016,05,06,15,38,11.30
2016,05,06,15,39,17.70
2016,05,06,15,40,16.10
2016,05,06,15,41,14.50
2016,05,06,15,42,19.30
2016,05,06,15,43,16.10
2016,05,06,15,44,12.90
2016,05,06,15,45,8.10
2016,05,06,15,46,14.50
2016,05,06,15,47,11.30
2016,05,06,15,48,14.50
2016,05,06,15,49,9.60
2016,05,06,15,50,12.90
2016,05,06,15,51,17.70
2016,05,06,15,52,12.90
2016,05,06,15,53,17.70
2016,05,06,15,54,14.50
2016,05,06,15,55,14.50
2016,05,06,15,56,14.50
2016,05,06,15,57,12.90
2016,05,06,15,58,16.10
2016,05,06,15,59,19.30
2016,05,06,16,00,14.50
2016,05,06,16,01,17.70
2016,05,06,16,02,12.90
2016,05,06,16,03,11.30
2016,05,06,16,04,16.10
2016,05,06,16,05,16.10
2016,05,06,16,06,14.50
2016,05,06,16,07,19.30
2016,05,06,16,08,17.70
2016,05,06,16,09,20.90
2016,05,06,16,10,19.30
2016,05,06,16,11,20.90
2016,05,06,16,12,17.70
2016,05,06,16,13,17.70
2016,05,06,16,14,20.90
2016,05,06,16,15,17.70
2016,05,06,16,16,20.90
2016,05,06,16,17,17.70
2016,05,06,16,18,22.50
2016,05,06,16,19,16.10
2016,05,06,16,20,12.90
2016,05,06,16,21,11.30
2016,05,06,16,22,14.50
2016,05,06,16,23,14.50
2016,05,06,16,24,11.30
2016,05,06,16,25,12.90
2016,05,06,16,26,12.90
2016,05,06,16,27,17.70
2016,05,06,16,28,17.70
2016,05,06,16,29,9.60
2016,05,06,16,30,11.30
2016,05,06,16,31,11.30
2016,05,06,16,32,8.10
2016,05,06,16,33,9.60
2016,05,06,16,34,9.60
2016,05,06,16,35,8.10
2016,05,06,16,36,11.30
2016,05,06,16,37,9.60
2016,05,06,16,38,9.60
2016,05,06,16,39,9.60
2016,05,06,16,40,14.50
2016,05,06,16,41,9.60
2016,05,06,16,42,9.60
2016,05,06,16,43,9.60
2016,05,06,16,44,11.30
2016,05,06,16,45,8.10
2016,05,06,16,46,9.60
2016,05,06,16,47,9.60
2016,05,06,16,48,12.90
2016,05,06,16,49,8.10
2016,05,06,16,50,9.60
2016,05,06,16,51,12.90
2016,05,06,16,52,12.90
2016,05,06,16,53,12.90
2016,05,06,16,54,12.90
2016,05,06,16,55,11.30
2016,05,06,16,56,14.50
2016,05,06,16,57,14.50
2016,05,06,16,58,11.30
2016,05,06,16,59,11.30
2016,05,06,17,00,11.30
2016,05,06,17,01,12.90
2016,05,06,17,02,11.30
2016,05,06,17,03,11.30
2016,05,06,17,04,11.30
2016,05,06,17,05,8.10
2016,05,06,17,06,11.30
2016,05,06,17,07,12.90
2016,05,06,17,08,16.10
2016,05,06,17,09,11.30
2016,05,06,17,10,11.30
2016,05,06,17,11,11.30
2016,05,06,17,12,14.50
2016,05,06,17,13,12.90
2016,05,06,17,14,11.30
2016,05,06,17,15,14.50
2016,05,06,17,16,16.10
2016,05,06,17,17,16.10
2016,05,06,17,18,14.50
2016,05,06,17,19,12.90
2016,05,06,17,20,17.70
2016,05,06,17,21,14.50
2016,05,06,17,22,14.50
2016,05,06,17,23,14.50
2016,05,06,17,24,11.30
2016,05,06,17,25,16.10
2016,05,06,17,26,16.10
2016,05,06,17,27,12.90
2016,05,06,17,28,9.60
2016,05,06,17,29,9.60
2016,05,06,17,30,14.50
2016,05,06,17,31,12.90
2016,05,06,17,32,9.60
2016,05,06,17,33,16.10
2016,05,06,17,34,14.50
2016,05,06,17,35,14.50
2016,05,06,17,36,14.50
2016,05,06,17,37,14.50
2016,05,06,17,38,9.60
2016,05,06,17,39,8.10
2016,05,06,17,40,9.60
2016,05,06,17,41,12.90
2016,05,06,17,42,14.50
2016,05,06,17,43,11.30
2016,05,06,17,44,12.90
2016,05,06,17,45,14.50
2016,05,06,17,46,14.50
2016,05,06,17,47,12.90
2016,05,06,17,48,14.50
2016,05,06,17,49,17.70
2016,05,06,17,50,12.90
2016,05,06,17,51,16.10
2016,05,06,17,52,9.60
2016,05,06,17,53,9.60
2016,05,06,17,54,12.90
2016,05,06,17,55,11.30
2016,05,06,17,56,12.90
2016,05,06,17,57,11.30
2016,05,06,17,58,11.30
2016,05,06,17,59,8.10
2016,05,06,18,00,9.60
2016,05,06,18,01,11.30
2016,05,06,18,02,11.30
2016,05,06,18,03,17.70
2016,05,06,18,04,17.70
2016,05,06,18,05,12.90
2016,05,06,18,06,16.10
2016,05,06,18,07,14.50
2016,05,06,18,08,9.60
2016,05,06,18,09,12.90
2016,05,06,18,10,12.90
2016,05,06,18,11,17.70
2016,05,06,18,12,12.90
2016,05,06,18,13,14.50
2016,05,06,18,14,14.50
2016,05,06,18,15,12.90
2016,05,06,18,16,12.90
2016,05,06,18,17,14.50
2016,05,06,18,18,12.90
2016,05,06,18,19,12.90
2016,05,06,18,20,12.90
2016,05,06,18,21,12.90
2016,05,06,18,22,14.50
2016,05,06,18,23,16.10
2016,05,06,18,24,11.30
2016,05,06,18,25,11.30
2016,05,06,18,26,17.70
2016,05,06,18,27,14.50
2016,05,06,18,28,11.30
2016,05,06,18,29,17.70
2016,05,06,18,30,12.90
2016,05,06,18,31,14.50
2016,05,06,18,32,14.50
2016,05,06,18,33,12.90
2016,05,06,18,34,16.10
2016,05,06,18,35,17.70
2016,05,06,18,36,14.50
2016,05,06,18,37,19.30
2016,05,06,18,38,17.70
2016,05,06,18,39,19.30
2016,05,06,18,40,19.30
2016,05,06,18,41,14.50
2016,05,06,18,42,19.30
2016,05,06,18,43,20.90
2016,05,06,18,44,19.30
2016,05,06,18,45,14.50
2016,05,06,18,46,20.90
2016,05,06,18,47,16.10
2016,05,06,18,48,16.10
2016,05,06,18,49,20.90
2016,05,06,18,50,16.10
2016,05,06,18,51,12.90
2016,05,06,18,52,17.70
2016,05,06,18,53,12.90
2016,05,06,18,54,11.30
2016,05,06,18,55,12.90
2016,05,06,18,56,19.30
2016,05,06,18,57,17.70
2016,05,06,18,58,22.50
2016,05,06,18,59,20.90
2016,05,06,19,00,19.30
2016,05,06,19,01,17.70
2016,05,06,19,02,19.30
2016,05,06,19,03,19.30
2016,05,06,19,04,19.30
2016,05,06,19,05,20.90
2016,05,06,19,06,22.50
2016,05,06,19,07,20.90
2016,05,06,19,08,16.10
2016,05,06,19,09,16.10
2016,05,06,19,10,20.90
2016,05,06,19,11,16.10
2016,05,06,19,12,17.70
2016,05,06,19,13,12.90
2016,05,06,19,14,12.90
2016,05,06,19,15,12.90
2016,05,06,19,16,12.90
2016,05,06,19,17,16.10
2016,05,06,19,18,17.70
2016,05,06,19,19,14.50
2016,05,06,19,20,19.30
2016,05,06,19,21,16.10
2016,05,06,19,22,16.10
2016,05,06,19,23,19.30
2016,05,06,19,24,17.70
2016,05,06,19,25,16.10
2016,05,06,19,26,17.70
2016,05,06,19,27,14.50
2016,05,06,19,28,16.10
2016,05,06,19,29,17.70
2016,05,06,19,30,19.30
2016,05,06,19,31,20.90
2016,05,06,19,32,20.90
2016,05,06,19,33,24.20
2016,05,06,19,34,20.90
2016,05,06,19,35,24.20
2016,05,06,19,36,16.10
2016,05,06,19,37,17.70
2016,05,06,19,38,14.50
2016,05,06,19,39,19.30
2016,05,06,19,40,17.70
2016,05,06,19,41,14.50
2016,05,06,19,42,19.30
2016,05,06,19,43,17.70
2016,05,06,19,44,19.30
2016,05,06,19,45,14.50
2016,05,06,19,46,19.30
2016,05,06,19,47,16.10
2016,05,06,19,48,20.90
2016,05,06,19,49,17.70
2016,05,06,19,50,17.70
2016,05,06,19,51,17.70
2016,05,06,19,52,17.70
2016,05,06,19,53,17.70
2016,05,06,19,54,14.50
2016,05,06,19,55,14.50
2016,05,06,19,56,11.30
2016,05,06,19,57,9.60
2016,05,06,19,58,11.30
2016,05,06,19,59,14.50
2016,05,06,20,00,12.90
2016,05,06,20,01,12.90
2016,05,06,20,02,12.90
2016,05,06,20,03,11.30
2016,05,06,20,04,14.50
2016,05,06,20,05,12.90
2016,05,06,20,06,11.30
2016,05,06,20,07,12.90